Find Starlink 32283

NORAD ID: 62425 Int'l Des: 2024-249 Owner: SPXS Country: US Constellation: starlink operational
LEOCIRCULAR

Live Position

Loading 3D Globe...

About Starlink 32283

Description loading...

Upcoming Passes

Passes for default location (London). Set your location on the main map for personalized predictions.

Altitude History

Loading altitude history...

Two-Line Element Set

1 62425U 24249S 26124.65316644 .00022612 00000-0 82877-3 0 9998
2 62425 42.9987 354.4613 0000648 250.8257 109.2525 15.27577274 76412
Epoch: May 4, 2026 • Age: 6 hours

Current Status

Altitude 483.1 km
Velocity 7.63 km/s
Sub-Earth Point 23.45°N, 173.91°W
Launch Date Dec 23, 2024
Age 1.3 years
Type internet

Technical Details

Classification Payload
Mass 730.00 kg
Dry Mass 700.00 kg
Total Mass 730.00 kg
Length 0.30 m
Diameter 4.10 m
Span 29.00 m
Shape Box + pan
Manufacturer SPXS
Bus Type Starlink V2M
Phase Status In Orbit
Owner/State SPXS/US

Most Searched